East Quogue, NY

9:53 AM EST on February 25, 2017 (GMT -0500)
The Gabreski

Weather History for KFOK - May, 2014

Change the Weather History Date:

Friday, May 2, 2014

  Actual Average Record
Temperature  
Mean Temperature 52 °F -  
Max Temperature 64 °F 61 °F 82 °F (2001)
Min Temperature 39 °F 40 °F 30 °F (2005)
Degree Days  
Heating Degree Days 12    
Growing Degree Days 2 (Base 50)    
Moisture  
Dew Point 43 °F    
Average Humidity 72    
Maximum Humidity 100    
Minimum Humidity 40    
Precipitation  
Precipitation 0.01 in - - ()
Sea Level Pressure  
Sea Level Pressure 29.77 in    
Wind  
Wind Speed 4 mph (West)    
Max Wind Speed 14 mph    
Max Gust Speed 20 mph    
Visibility 8 miles    
Events Fog , Rain    
Averages and records for this station are not official NWS values.
T = Trace of Precipitation, MM = Missing Value Source: NWS Daily Summary

Daily Weather History Graph

Daily Weather History Graph

Search for Another Location

Airport or City:

Trip Planner

Search our weather history database for the weather conditions in past years. The results will help you decide how hot, cold, wet, or windy it might be!

Date:

Astronomy

May. 02, 2014 Rise Set
Actual Time 5:47 AM EDT 7:47 PM EDT
Civil Twilight 5:17 AM EDT 8:17 PM EDT
Nautical Twilight 4:41 AM EDT 8:54 PM EDT
Astronomical Twilight 4:01 AM EDT 9:34 PM EDT
Moon 8:22 AM EDT (5/2) 11:08 PM EDT (5/2)
Length of Visible Light 15h 00m
Length of Day
14h 00m
Waxing Crescent, 12% of the Moon is Illuminated
May 2
Waxing Crescent
May 6
First Quarter
May 14
Full
May 21
Last Quarter
May 28
New

Hourly Weather History & Observations

Time (EDT) Temp. Dew Point Humidity Pressure Visibility Wind Dir Wind Speed Gust Speed Precip Events Conditions
12:03 AM 50.0 °F 50.0 °F 100% 29.72 in 0.5 mi WSW 3.5 mph - N/A Fog Fog
12:32 AM 51.8 °F 50.0 °F 94% 29.71 in 1.5 mi Calm Calm - N/A   Overcast
12:42 AM 51.8 °F 51.8 °F 100% 29.71 in 2.0 mi Calm Calm - N/A   Overcast
12:53 AM 51.1 °F 51.1 °F 100% 29.72 in 4.0 mi Calm Calm - N/A   Overcast
1:07 AM 50.0 °F 50.0 °F 100% 29.71 in 1.8 mi Calm Calm - N/A   Overcast
1:15 AM 51.8 °F 48.2 °F 88% 29.72 in 3.0 mi North 3.5 mph - N/A   Overcast
1:23 AM 50.0 °F 48.2 °F 94% 29.73 in 5.0 mi Calm Calm - N/A   Overcast
1:53 AM 55.9 °F 54.0 °F 93% 29.72 in 10.0 mi North 9.2 mph - 0.00 in Rain Light Rain
2:53 AM 55.0 °F 51.1 °F 86% 29.72 in 10.0 mi North 8.1 mph 16.1 mph 0.00 in   Scattered Clouds
3:53 AM 53.1 °F 44.1 °F 71% 29.73 in 10.0 mi North 4.6 mph - N/A   Mostly Cloudy
4:53 AM 52.0 °F 42.1 °F 69% 29.72 in 10.0 mi NNW 6.9 mph - N/A   Overcast
5:53 AM 50.0 °F 42.1 °F 74% 29.75 in 10.0 mi NNW 6.9 mph - 0.00 in   Overcast
6:53 AM 50.0 °F 44.1 °F 80% 29.77 in 10.0 mi Calm Calm - 0.00 in   Overcast
7:53 AM 53.1 °F 46.9 °F 80% 29.77 in 10.0 mi WNW 4.6 mph - 0.01 in   Overcast
8:53 AM 57.0 °F 43.0 °F 59% 29.79 in 10.0 mi NNW 3.5 mph - N/A   Overcast
9:53 AM 60.1 °F 39.0 °F 46% 29.78 in 10.0 mi Variable 3.5 mph - N/A   Mostly Cloudy
10:53 AM 63.0 °F 42.1 °F 46% 29.79 in 10.0 mi SW 6.9 mph - N/A   Mostly Cloudy
11:53 AM 64.0 °F 39.0 °F 40% 29.78 in 10.0 mi South 9.2 mph - N/A   Clear
12:53 PM 63.0 °F 37.9 °F 40% 29.78 in 10.0 mi SW 10.4 mph 17.3 mph N/A   Mostly Cloudy
1:53 PM 59.0 °F 37.9 °F 46% 29.78 in 10.0 mi SW 9.2 mph - N/A   Overcast
2:53 PM 62.1 °F 41.0 °F 46% 29.76 in 10.0 mi SW 13.8 mph 19.6 mph N/A   Mostly Cloudy
3:53 PM 60.1 °F 39.0 °F 46% 29.76 in 10.0 mi WSW 13.8 mph 19.6 mph N/A   Scattered Clouds
4:53 PM 59.0 °F 41.0 °F 51% 29.77 in 10.0 mi WSW 10.4 mph - N/A   Overcast
5:53 PM 60.1 °F 39.0 °F 46% 29.77 in 10.0 mi SW 10.4 mph 18.4 mph N/A   Mostly Cloudy
6:53 PM 55.9 °F 41.0 °F 57% 29.80 in 10.0 mi WSW 11.5 mph - N/A   Clear
7:53 PM 51.1 °F 41.0 °F 68% 29.81 in 10.0 mi South 4.6 mph - N/A   Clear
8:53 PM 46.9 °F 39.9 °F 77% 29.83 in 10.0 mi Calm Calm - N/A   Clear
9:53 PM 42.1 °F 37.0 °F 82% 29.85 in 8.0 mi Calm Calm - N/A   Clear
10:53 PM 41.0 °F 37.0 °F 86% 29.86 in 8.0 mi Calm Calm - N/A   Clear
11:53 PM 39.0 °F 35.1 °F 86% 29.86 in 7.0 mi Calm Calm - N/A   Clear